Location: Oberwangen
(47.4286°N, 8.9679°E)
Time: 23:39:37
(UTC+00:00)

Cosmos 1328 - Pass Details

Date: 20 June 2021
Orbit: 527 x 555 km, 82.5° (Epoch: 23 July)

Event Time Altitude Azimuth Distance (km) Brightness Sun altitude
Exits shadow 22:30:50 38° 130° (SE) 815 4.3 -18.1°
Maximum altitude 22:31:40 45° 94° (E) 730 4.3 -18.1°
Drops below altitude 10° 22:35:24 10° 21° (NNE) 1,786 7.3 -18.2°
Sets 22:37:37 0° 15° (NNE) 2,684 8.5 -18.3°
